Flag for U.S.A. Weather past 2 weeks in Allentown, Pennsylvania, U.S.A.

Now
89 °F

Passing clouds.


Feels Like: 94 °F
Forecast: 66 / 91 °F
Wind: 6 mph from North

Location: Lehigh Valley International Airport

Current Time: Jul 29, 2015 at 12:36:37 PM

Latest Report: Jul 29, 2015 at 11:51 AM


Visibility: 10 mi

Pressure: 29.98 "Hg

Humidity: 53%

Dew point: 70 °F

Location of AllentownLocation

Historic Weather in Allentown — Graph

°F

Allentown temperature yesterday

Maximum temperature yesterday: 91 °F (at 2:51 PM)
Minimum temperature yesterday: 68 °F (at 4:51 AM)
Average temperature yesterday: 80 °F

Past Weeks' High & Low Weather Summary

 TemperatureHumidityPressure
High93 °F (Jul 19, 2:51 PM)96% (Jul 28, 4:51 AM)30.11 "Hg (Jul 28, 4:51 AM)
Low57 °F (Jul 16, 4:51 AM)30% (Jul 24, 5:51 PM)29.54 "Hg (Jul 14, 6:51 PM)
Average75 °F68%29.89 "Hg
* Reported Jul 14 10:58 AM — Jul 29 10:51 AM, Allentown, Weather by CustomWeather, © 2015

Note: Actual official high and low records may vary slightly from our data, if they occured in-between our weather recording intervals... More about our weather records

Advertising

Allentown weather history for previous 24 hours

 ConditionsComfort  
Time TempWeatherWind HumidityBarometerVisibility
10:51 AM
Wed, Jul 29
87 °FSunny.No wind53%29.99 "Hg10 mi
9:51 AM83 °FSunny.No wind63%30.00 "Hg10 mi
8:51 AM78 °FSunny.No wind71%30.00 "Hg9 mi
7:51 AM74 °FSunny.No wind79%30.00 "Hg9 mi
6:51 AM69 °FClear.3 mph90%30.00 "Hg7 mi
5:51 AM68 °FClear.No wind90%29.98 "Hg7 mi
4:51 AM69 °FClear.3 mph87%29.97 "Hg9 mi
3:51 AM70 °FClear.No wind87%29.98 "Hg9 mi
2:51 AM70 °FClear.3 mph90%29.98 "Hg10 mi
1:51 AM71 °FClear.3 mph87%29.99 "Hg10 mi
12:51 AM71 °FClear.No wind87%29.99 "Hg10 mi
11:51 PM
Tue, Jul 28
73 °FClear.No wind84%29.99 "Hg10 mi
10:51 PM76 °FClear.No wind77%29.98 "Hg10 mi
9:51 PM77 °FClear.No wind71%29.98 "Hg10 mi
8:51 PM80 °FSunny.3 mph60%29.97 "Hg10 mi
7:51 PM86 °FSunny.No wind49%29.95 "Hg10 mi
6:51 PM89 °FSunny.5 mph43%29.94 "Hg10 mi
5:51 PM90 °FSunny.5 mph38%29.95 "Hg10 mi
4:51 PM91 °FSunny.5 mph38%29.95 "Hg10 mi
3:51 PM91 °FSunny.7 mph38%29.96 "Hg10 mi
2:51 PM91 °FSunny.5 mph41%29.96 "Hg10 mi
1:51 PM89 °FSunny.3 mph41%29.98 "Hg10 mi
12:51 PM88 °FSunny.No wind42%29.99 "Hg10 mi
Weather by CustomWeather, © 2015

See weather overviewHow to use our weather pages